#timestamp,LO_Frequency,Hit,StdDev 
1709550015.7,286046998.8,N
1709550035.5,286046998.1,N
1709550055.4,286047000.3,N
1709550075.2,286046999.9,N
1709550095.0,286046998.4,N
1709550095.9,286046998.4,N
1709550115.8,286046999.2,N
1709550135.6,286046997.3,N
1709550155.4,286046999.5,N
1709550175.3,286046997.1,N
1709550195.1,286046997.4,N
1709550215.8,286046998.9,N
1709550235.7,286047001.2,N
1709550255.5,286046998.7,N
1709550275.4,286046998.9,N
1709550295.2,286046996.5,N
1709550315.0,286046997.2,N
1709550315.9,286046997.2,N
1709550335.8,286046997.1,N
1709550355.6,286046997.0,N
1709550375.4,286047000.7,N
1709550395.3,286046998.6,N
1709550415.1,286046999.5,N
1709550435.9,286046996.9,N
1709550455.7,286046999.4,N
1709550475.5,286047000.9,N
1709550495.4,286046998.9,N
1709550515.2,286046999.0,N
1709550535.0,286046997.1,N
1709550535.9,286046997.1,N
1709550555.8,286046999.3,N
1709550575.6,286046999.4,N
1709550595.5,286046997.1,N
1709550615.3,286046997.6,N
1709550635.1,286046997.6,N
1709550655.9,286046997.5,N
1709550675.7,286046997.2,N
1709550695.5,286046997.1,N
1709550715.4,286046998.4,N
1709550735.2,286046996.5,N
1709550755.1,286046995.0,Y
1709550756.0,286046995.0,P
1709550775.8,286046999.1,N
1709550795.7,286046999.3,N
1709550815.5,286047000.6,N
1709550835.3,286046998.2,N
1709550855.2,286046999.4,N
1709550875.0,286046999.0,N
1709550875.9,286046999.0,N
1709550895.7,286046999.2,N
1709550915.6,286046999.6,N
1709550935.4,286046998.7,N
1709550955.3,286046996.6,N
1709550975.1,286046996.7,N
1709550976.0,286046996.7,N
1709550995.8,286046997.1,N
1709551015.7,286046997.1,N
1709551035.5,286046996.5,N
1709551055.4,286046999.1,N
1709551075.2,286046999.5,N
1709551095.0,286046999.1,N
1709551095.9,286046999.1,N
1709551115.8,286046997.7,N
1709551135.6,286046997.3,N
1709551155.4,286046995.4,Y
1709551175.3,286046996.8,P
1709551195.1,286046996.7,P
1709551215.9,286047000.8,N
1709551235.7,286047000.3,N
1709551255.5,286047000.3,N
1709551275.4,286047001.9,N
1709551295.2,286047000.9,N
1709551315.0,286047002.2,N
1709551315.9,286047002.2,N
1709551335.8,286047002.7,N
1709551355.6,286047000.3,N
1709551375.5,286047000.5,N
1709551395.3,286047000.4,N
1709551415.1,286046998.4,N
1709551435.9,286046998.3,N
1709551455.7,286047001.0,N
1709551475.5,286047000.8,N
1709551495.4,286047000.1,N
1709551515.2,286047001.1,N
1709551535.0,286046998.5,N
1709551536.0,286046998.5,N
1709551555.8,286046999.1,N
1709551575.6,286046998.9,N
1709551595.5,286047000.7,N
1709551615.3,286046999.7,N
1709551635.1,286046999.9,N
1709551655.9,286047000.3,N
1709551675.7,286047000.5,N
1709551695.6,286047002.1,N
1709551715.4,286047000.2,N
1709551735.2,286047002.6,N
1709551755.1,286047002.4,N
1709551756.0,286047002.4,N
1709551775.8,286047002.6,N
1709551795.6,286047000.2,N
1709551815.5,286047002.1,N
1709551835.3,286046999.8,N
1709551855.2,286047000.6,N
1709551875.1,286047000.2,N
1709551876.0,286047000.2,N
1709551895.8,286047002.8,N
1709551915.7,286047002.4,N
1709551935.5,286046999.8,N
1709551955.3,286047001.2,N
1709551975.2,286047000.9,N
1709551995.0,286047002.3,N
1709551995.9,286047002.3,N
1709552015.8,286046999.9,N
1709552035.6,286047000.3,N
1709552055.4,286046998.4,N
1709552075.3,286046998.4,N
1709552095.2,286046998.6,N
1709552115.1,286046998.6,N
1709552116.0,286046998.6,N
1709552135.8,286047000.3,N
1709552155.6,286046999.4,N
1709552175.5,286046996.6,N
1709552195.3,286046997.8,N
1709552215.1,286046999.6,N
1709552235.9,286046998.8,N
1709552255.7,286046996.9,N
1709552275.6,286046997.1,N
1709552295.4,286046996.8,N
1709552315.2,286046999.2,N
1709552335.1,286046999.0,N
1709552336.0,286046999.0,N
1709552355.8,286046999.3,N
1709552375.6,286046999.1,N
1709552395.5,286046997.2,N
1709552415.3,286046999.5,N
1709552435.1,286046997.0,N
1709552455.9,286046999.2,N
1709552475.7,286046998.6,N
1709552495.6,286047001.2,N
1709552515.4,286046996.9,N
1709552535.2,286046997.6,N
1709552555.1,286046997.4,N
1709552556.0,286046997.4,N
1709552575.8,286046999.5,N
1709552595.7,286046999.1,N
1709552615.5,286046998.2,N
1709552635.3,286046999.0,N
1709552655.2,286046999.4,N
1709552675.9,286046997.0,N
1709552695.7,286046999.6,N
1709552715.6,286046999.2,N
1709552735.4,286046996.7,N
1709552755.2,286046999.2,N
1709552775.1,286046998.7,N
1709552776.0,286046998.7,N
1709552795.8,286046998.2,N
1709552815.7,286046998.2,N
1709552835.5,286047001.1,N
1709552855.3,286046999.0,N
1709552875.2,286046996.8,N
1709552895.0,286046998.0,N
1709552895.9,286046998.0,N
1709552915.7,286046997.7,N
1709552935.6,286046996.5,Y
1709552955.4,286046998.5,P
1709552975.3,286046998.8,P
1709552995.1,286046999.1,P
1709553015.9,286046996.5,Y
1709553035.7,286046998.3,P
1709553055.5,286047000.5,N
1709553075.4,286047001.2,N
1709553095.2,286047001.1,N
1709553115.0,286047000.7,N
1709553115.9,286047000.7,N
1709553135.8,286046999.8,N
1709553155.6,286047002.6,N
1709553175.4,286047002.4,N
1709553195.3,286047000.6,N
1709553215.1,286046998.4,N
1709553235.9,286046996.7,N
1709553255.7,286046996.6,N
1709553275.5,286046996.6,N
1709553295.4,286046999.5,N
1709553315.2,286046997.7,N
1709553335.0,286046997.3,N
1709553335.9,286046997.3,N
1709553355.8,286046999.3,N
1709553375.6,286046998.5,N
1709553395.5,286046996.8,N
1709553415.3,286046997.9,N
1709553435.1,286046997.5,N
1709553455.9,286046997.5,N
1709553475.7,286046997.7,N
1709553495.5,286046997.1,N
1709553515.4,286046994.9,N
1709553535.2,286046997.1,N
1709553555.0,286046996.9,N
1709553555.9,286046996.9,N
1709553575.8,286047001.2,N
1709553595.6,286046999.5,N
